Regional Weather Roundup
Issued by NWS

Home | Current Version | Previous Version | Text Only | Print | Product List | Glossary Off
Versions: 1 2 3 4 5 6 7 8 9 10 11 12 13 14 15 16 17 18 19 20 21 22 23 24 25 26 27 28 29 30 31 32 33 34 35 36 37 38 39 40 41 42 43 44 45 46 47 48 49 50

000
ASUS45 KBOU 251507
RWRCO

WEATHER ROUNDUP FOR COLORADO
NATIONAL WEATHER SERVICE DENVER/BOULDER CO
800 AM MST THU DEC 25 2014

NOTE: "FAIR" INDICATES FEW OR NO CLOUDS BELOW 12000 FEET WITH NO
SIGNIFICANT WEATHER AND/OR OBSTRUCTIONS TO VISIBILITY.

COZ001>005-013-030-031-251600-
...NORTHWEST COLORADO...

CITY           SKY/WX    TMP DP  RH WIND       PRES   REMARKS
CRAIG          FLURRIES  28  26  92 NE6       29.48F WCI  22
HAYDEN         CLOUDY    25  21  86 E6        29.48F WCI  18
MEEKER         CLOUDY    31  23  72 NW3       29.47F
MOUNT WERNER   NOT AVBL
STEAMBOAT SPGS CLOUDY    21  19  93 CALM      29.48S
WALDEN         MOCLDY    27  23  86 SE9       29.47F WCI  17
$$

COZ006>008-011-251600-
...WEST CENTRAL VALLEYS...

CITY           SKY/WX    TMP DP  RH WIND       PRES   REMARKS
GRAND JUNCTION LGT SNOW  28  23  81 N7        29.50S WCI  21
MONTROSE       CLOUDY    33  20  58 NW5       29.52F WCI  29
EAGLE          LGT SNOW  18  16  93 CALM      29.56F FOG
RIFLE          LGT SNOW  24  21  88 CALM      29.55S FOG
DELTA          CLOUDY    36  26  67 E5        29.53S
NUCLA          CLOUDY    36  23  60 SW20G25   29.55F
$$

COZ017>023-064>068-251600-
...SOUTHWEST COLORADO...

CITY           SKY/WX    TMP DP  RH WIND       PRES   REMARKS
DURANGO        CLOUDY    27  15  61 N3        29.63S
CORTEZ         CLOUDY    38  15  39 S18G24    29.57F
PAGOSA SPRINGS LGT SNOW  22  15  74 E5        29.66S WCI  16
TELLURIDE      FLURRIES  28  20  73 SE7       29.55F WCI  20
WOLF CREEK PAS   N/A      9   9 100 MISG      29.58F VSB 1/2
$$

COZ009-010-012-014-032>034-037-058>063-251600-
...CENTRAL COLORADO...

CITY           SKY/WX    TMP DP  RH WIND       PRES   REMARKS
ASPEN          FLURRIES  21  19  92 CALM      29.49S
BUENA VISTA    MOCLDY    15   9  78 CALM      29.55S
COPPER MTN     LGT SNOW  21  14  73 S15G24    29.51S WCI   8
BERTHOUD PASS  FAIR      14   9  79 MISG      29.49F
COTTONWOOD PAS LGT SNOW  27  19  74 CALM      29.53R
GUNNISON       MOCLDY     9  -4  56 CALM      29.62F
KREMMLING      LGT SNOW  12   9  85 CALM      29.54S
LEADVILLE      CLOUDY    13  10  88 W3        29.50S
MONARCH PASS   FLURRIES  12  10  92 MISG      29.63S
SALIDA         PTCLDY    29  11  47 SW8       29.61S WCI  21
SUNLIGHT       HVY SNOW N/A N/A N/A MISG      29.50F VSB<1/4
WILKERSON PASS PTCLDY    16  12  86 SW13G22   29.52S WCI   2
$$

COZ069>075-251600-
...SAN LUIS VALLEY/SANGRE DE CRISTO MOUNTAINS...

CITY           SKY/WX    TMP DP  RH WIND       PRES   REMARKS
ALAMOSA        MOCLDY     7   1  76 NW8       29.61S WCI  -6
LA VETA PASS   NOT AVBL
SAGUACHE       PTCLDY     3  -2  78 N9        29.64R WCI -11
$$

COZ035-036-038>040-251600-
...NORTHERN COLORADO FRONT RANGE...

CITY           SKY/WX    TMP DP  RH WIND       PRES   REMARKS
DENVER INTL AP PTCLDY    35  21  56 E7        29.40R WCI  29
DMNS CITY PARK   N/A     29  17  60 NW7       29.42R WCI  22
AURORA         PTCLDY    35  19  52 NE6       29.41R WCI  30
FRONT RANGE AP NOT AVBL
ERIE MUNI ARPT   N/A     22  18  86 CALM      29.42R
BOULDER MUN AP CLEAR     32  19  59 CALM      29.44R
CENTENNIAL     PTCLDY    38  19  46 W12       29.38S
BROOMFIELD     PTCLDY    28  18  64 NW8       29.41R WCI  20
FORT COLLINS   MOCLDY    28  18  64 N8        29.44R WCI  20
LONGMONT       MOCLDY    27  20  73 NW6       29.45R WCI  21
$$

COZ041-046-047-076>085-087-088-251600-
...PIKES PEAK/PALMER DIVIDE AND SOUTHERN FOOTHILLS...

CITY           SKY/WX    TMP DP  RH WIND       PRES   REMARKS
COLO. SPRINGS  PTCLDY    46  14  27 W16       29.42F
A. F. ACADEMY  CLEAR     43  13  30 W17G29    29.37F
ELLICOTT       NOT AVBL
FALCON         PTCLDY    31  14  48 NE5       29.43S WCI  27
FORT CARSON    PTCLDY    42  17  35 SW18      29.40F
LIMON          CLEAR     26  21  81 NW5       29.40F WCI  20
MONUMENT HILL  CLEAR     37  14  38 W9        29.41F
TRINIDAD       CLEAR     38  16  40 SW6       29.51S
$$

COZ042>045-048>051-090-091-251600-
...NORTHEAST COLORADO...

CITY           SKY/WX    TMP DP  RH WIND       PRES   REMARKS
GREELEY ARPT   MOCLDY    27  16  63 NW6       29.42R WCI  20
AKRON          MOCLDY    34  22  61 N13       29.40S WCI  25
BURLINGTON     CLEAR     30  21  69 NW13      29.39F WCI  20
WRAY           MOCLDY    26  24  91 W6        29.42R WCI  19
STERLING       PTCLDY    25  21  86 NW3       29.44R
HOLYOKE        MOCLDY    28  23  80 E6        29.42R WCI  22
FORT MORGAN    CLOUDY    25  19  79 CALM      29.43R
$$

COZ086-089-092>099-251600-
...SOUTHEAST COLORADO...

CITY           SKY/WX    TMP DP  RH WIND       PRES   REMARKS
PUEBLO         CLEAR     35  17  47 N6        29.43F WCI  30
LA JUNTA       CLEAR     43  18  36 SW13      29.46R
LAMAR          CLEAR     43  22  43 W18       29.42F
SPRINGFIELD      N/A     44  20  38 SW14      29.47R
$$



USA.gov is the U.S. government's official web portal to all federal, state and local government web resources and services.